Zurück zum Katalog

THOR ABLESTAR DEB

AktivLEO
NORAD 3842·DEBRIS·🇺🇸 United States

Gestartet Jun 29, 1961 von Cape Canaveral Space Force Station

Loading…

Nächste Überflüge (nächste 24 Stunden)

TLE

AktuellSource: Space-Track

Epoche: Sep 13, 2026, 11:44 UTC

1 03842U 61015JF  26256.48917818  .00000299  00000-0  38593-3 0  9998
2 03842  66.7376 173.4839 0123671  49.7407 311.4398 13.72255041247293

Verfolge THOR ABLESTAR DEB in Echtzeit mit AllMySat

Download on the App Store